Volver al catálogo

THORAD AGENA D DEB

ActivoLEO
NORAD 4135·DEBRIS·🇺🇸 United States

Lanzado Sep 30, 1969 desde Vandenberg Space Force Base

Loading…

Próximos Pases (próximas 24 horas)

TLE

ActualizadoSource: Space-Track

Época: Sep 14, 2026, 21:51 UTC

1 04135U 69082DP  26257.91091234  .00000184  00000-0  10304-3 0  9993
2 04135  69.9824 327.0428 0044334 134.5129 225.9628 14.24291973944218

Sigue THORAD AGENA D DEB en tiempo real con AllMySat

Download on the App Store